| time (UTC) | temp F | wind direction | speed MPH | gust MPH | rain 1hr in | rain 24hr in | rain mn in | humidity % | barometer mb |
| 20260509211532 | -34 | 315 | 0.0 | 0.0 | 0.00 | 0.00 | 0.00 | 1012.1 | |
| 20260509210029 | -35 | 267 | 0.0 | 0.0 | 0.00 | 0.00 | 0.00 | 1011.8 | |
| 20260509204524 | -36 | 331 | 0.0 | 0.0 | 0.00 | 0.00 | 0.00 | 1011.8 | |
| 20260509203027 | -36 | 316 | 0.0 | 0.0 | 0.00 | 0.00 | 0.00 | 1011.7 | |
| 20260509201515 | -36 | 301 | 0.0 | 0.0 | 0.00 | 0.00 | 0.00 | 1011.7 | |
| 20260509200010 | -37 | 277 | 0.0 | 0.0 | 0.00 | 0.00 | 0.00 | 1011.4 | |
| 20260509194506 | -36 | 193 | 1.0 | 0.0 | 0.00 | 0.00 | 0.00 | 1011.1 | |
| 20260509193003 | -36 | 190 | 1.0 | 0.0 | 0.00 | 0.00 | 0.00 | 1011.0 | |
| 20260509191558 | -35 | 210 | 0.0 | 0.0 | 0.00 | 0.00 | 0.00 | 1011.7 | |
| 20260509190053 | -34 | 208 | 1.0 | 0.0 | 0.00 | 0.00 | 0.00 | 1012.0 | |
| 20260509184554 | -32 | 242 | 0.0 | 0.0 | 0.00 | 0.00 | 0.00 | 1012.0 | |
| 20260509183045 | -31 | 265 | 0.0 | 0.0 | 0.00 | 0.00 | 0.00 | 1012.1 | |
| 20260509181552 | -30 | 288 | 0.0 | 0.0 | 0.00 | 0.00 | 0.00 | 1012.3 | |
| 20260509180038 | -28 | 223 | 0.0 | 0.0 | 0.00 | 0.00 | 0.00 | 1012.3 | |
| 20260509174531 | -27 | 240 | 0.0 | 0.0 | 0.00 | 0.00 | 0.00 | 1012.2 | |
| 20260509173027 | -27 | 170 | 0.0 | 0.0 | 0.00 | 0.00 | 0.00 | 1012.2 | |
| 20260509171523 | -27 | 198 | 0.0 | 0.0 | 0.00 | 0.00 | 0.00 | 1012.2 | |
| 20260509170018 | -26 | 172 | 0.0 | 0.0 | 0.00 | 0.00 | 0.00 | 1012.4 | |
| 20260509164513 | -24 | 180 | 0.0 | 0.0 | 0.00 | 0.00 | 0.00 | 1012.5 | |
| 20260509163009 | -22 | 150 | 0.0 | 0.0 | 0.00 | 0.00 | 0.00 | 1012.4 | |
| 20260509161505 | -20 | 132 | 0.0 | 0.0 | 0.00 | 0.00 | 0.00 | 1012.5 | |
| 20260509154610 | -18 | 184 | 0.0 | 0.0 | 0.00 | 0.00 | 0.00 | 1012.9 | |
| 20260509153102 | -17 | 234 | 0.0 | 0.0 | 0.00 | 0.00 | 0.00 | 1012.9 | |
| 20260509151550 | -15 | 217 | 0.0 | 0.0 | 0.00 | 0.00 | 0.00 | 1013.1 | |
| 20260509150046 | -14 | 213 | 0.0 | 0.0 | 0.00 | 0.00 | 0.00 | 1013.2 | |
| 20260509144540 | -12 | 208 | 0.0 | 0.0 | 0.00 | 0.00 | 0.00 | 1013.3 | |
| 20260509143035 | -9 | 213 | 0.0 | 0.0 | 0.00 | 0.00 | 0.00 | 1013.4 | |
| 20260509141531 | -6 | 193 | 0.0 | 0.0 | 0.00 | 0.00 | 0.00 | 1013.3 | |
| 20260509140026 | -3 | 209 | 0.0 | 0.0 | 0.00 | 0.00 | 0.00 | 1013.0 | |
| 20260509134521 | 0 | 196 | 0.0 | 0.0 | 0.00 | 0.00 | 0.00 | 1013.1 | |
| 20260509133017 | 2 | 207 | 0.0 | 0.0 | 0.00 | 0.00 | 0.00 | 1013.2 | |
| 20260509131513 | 3 | 306 | 0.0 | 0.0 | 0.00 | 0.00 | 0.00 | 1013.0 | |
| 20260509130008 | 4 | 250 | 0.0 | 0.0 | 0.00 | 0.00 | 0.00 | 1013.0 | |
| 20260509124505 | 4 | 250 | 0.0 | 0.0 | 0.00 | 0.00 | 0.00 | 1013.0 | |
| 20260509123100 | 5 | 197 | 0.0 | 0.0 | 0.00 | 0.00 | 0.00 | 1012.6 | |
| 20260509121606 | 5 | 209 | 0.0 | 0.0 | 0.00 | 0.00 | 0.00 | 1012.5 | |
| 20260509120104 | 5 | 186 | 0.0 | 0.0 | 0.00 | 0.00 | 0.00 | 1012.5 | |
| 20260509114546 | 5 | 183 | 0.0 | 0.0 | 0.00 | 0.00 | 0.00 | 1012.7 | |
| 20260509113043 | 3 | 120 | 0.0 | 0.0 | 0.00 | 0.00 | 0.00 | 1012.7 | |
| 20260509111539 | 2 | 119 | 0.0 | 0.0 | 0.00 | 0.00 | 0.00 | 1012.4 | |
| 20260509110042 | 1 | 111 | 0.0 | 0.0 | 0.00 | 0.00 | 0.00 | 1012.3 | |
| 20260509104533 | 0 | 117 | 0.0 | 0.0 | 0.00 | 0.00 | 0.00 | 1012.0 | |
| 20260509103024 | 0 | 117 | 0.0 | 0.0 | 0.00 | 0.00 | 0.00 | 1011.9 | |
| 20260509101520 | -1 | 117 | 0.0 | 0.0 | 0.00 | 0.00 | 0.00 | 1011.9 | |
| 20260509100015 | -2 | 117 | 0.0 | 0.0 | 0.00 | 0.00 | 0.00 | 1011.8 | |
| 20260509094511 | -3 | 119 | 1.0 | 0.0 | 0.00 | 0.00 | 0.00 | 1011.3 | |
| 20260509093007 | -4 | 111 | 0.0 | 0.0 | 0.00 | 0.00 | 0.00 | 1011.3 | |
| 20260509091502 | -5 | 109 | 0.0 | 0.0 | 0.00 | 0.00 | 0.00 | 1011.7 | |
| 20260509090059 | -6 | 88 | 0.0 | 0.0 | 0.00 | 0.00 | 0.00 | 1012.0 | |
| 20260509084554 | -7 | 86 | 0.0 | 0.0 | 0.00 | 0.00 | 0.00 | 1012.3 | |
| 20260509083053 | -8 | 86 | 0.0 | 0.0 | 0.00 | 0.00 | 0.00 | 1012.0 | |
| 20260509081545 | -9 | 107 | 0.0 | 0.0 | 0.00 | 0.00 | 0.00 | 1011.7 | |
| 20260509080048 | -10 | 109 | 1.0 | 0.0 | 0.00 | 0.00 | 0.00 | 1011.8 | |
| 20260509074540 | -11 | 116 | 0.0 | 0.0 | 0.00 | 0.00 | 0.00 | 1012.2 | |
| 20260509073102 | -12 | 111 | 0.0 | 0.0 | 0.00 | 0.00 | 0.00 | 1012.3 | |
| 20260509071530 | -13 | 98 | 0.0 | 0.0 | 0.00 | 0.00 | 0.00 | 1012.5 | |
| 20260509070024 | -14 | 79 | 1.0 | 0.0 | 0.00 | 0.00 | 0.00 | 1011.9 | |
| 20260509064519 | -15 | 98 | 0.0 | 0.0 | 0.00 | 0.00 | 0.00 | 1012.7 | |
| 20260509063019 | -17 | 104 | 0.0 | 0.0 | 0.00 | 0.00 | 0.00 | 1013.0 | |
| 20260509061510 | -19 | 105 | 0.0 | 0.0 | 0.00 | 0.00 | 0.00 | 1013.3 | |
| 20260509060007 | -21 | 99 | 2.0 | 0.0 | 0.00 | 0.00 | 0.00 | 1012.2 | |
| 20260509054501 | -22 | 121 | 2.0 | 0.0 | 0.00 | 0.00 | 0.00 | 1012.8 | |
| 20260509053103 | -23 | 96 | 1.0 | 0.0 | 0.00 | 0.00 | 0.00 | 1013.1 | |
| 20260509051553 | -25 | 98 | 0.0 | 0.0 | 0.00 | 0.00 | 0.00 | 1013.2 | |
| 20260509050055 | -27 | 126 | 0.0 | 0.0 | 0.00 | 0.00 | 0.00 | 1013.8 | |
| 20260509044546 | -29 | 126 | 0.0 | 0.0 | 0.00 | 0.00 | 0.00 | 1013.5 | |
| 20260509043043 | -31 | 116 | 1.0 | 0.0 | 0.00 | 0.00 | 0.00 | 1014.0 | |
| 20260509041536 | -33 | 119 | 1.0 | 0.0 | 0.00 | 0.00 | 0.00 | 1013.9 | |
| 20260509040033 | -35 | 121 | 0.0 | 0.0 | 0.00 | 0.00 | 0.00 | 1014.3 | |
| 20260509034539 | -37 | 154 | 0.0 | 0.0 | 0.00 | 0.00 | 0.01 | 1014.6 | |
| 20260509033022 | -40 | 137 | 0.0 | 0.0 | 0.00 | 0.00 | 0.01 | 1015.0 | |
| 20260509031519 | -43 | 128 | 0.0 | 0.0 | 0.00 | 0.00 | 0.01 | 1015.2 | |
| 20260509030013 | -45 | 112 | 0.0 | 0.0 | 0.00 | 0.00 | 0.00 | 1015.3 | |
| 20260509024509 | -47 | 107 | 0.0 | 0.0 | 0.00 | 0.00 | 0.00 | 1016.2 | |
| 20260509023007 | -49 | 107 | 0.0 | 0.0 | 0.00 | 0.00 | 0.00 | 1016.0 | |
| 20260509021601 | -50 | 107 | 0.0 | 0.0 | 0.00 | 0.00 | 0.00 | 1016.3 | |
| 20260509020056 | -50 | 107 | 0.0 | 0.0 | 0.00 | 0.00 | 0.00 | 1016.0 | |
| 20260509014551 | -52 | 107 | 0.0 | 0.0 | 0.00 | 0.00 | 0.00 | 1015.6 | |
| 20260509013050 | -54 | 107 | 0.0 | 0.0 | 0.00 | 0.00 | 0.00 | 1015.2 | |
| 20260509011554 | -59 | 91 | 0.0 | 0.0 | 0.00 | 0.00 | 0.00 | 1014.2 | |
| 20260509010045 | -63 | 87 | 0.0 | 0.0 | 0.00 | 0.00 | 0.00 | 1014.6 | |
| 20260509004541 | -68 | 89 | 0.0 | 0.0 | 0.00 | 0.00 | 0.00 | 1014.6 | |
| 20260509003030 | -70 | 115 | 0.0 | 0.0 | 0.00 | 0.00 | 0.00 | 1014.3 | |
| 20260509001526 | -75 | 106 | 1.0 | 0.0 | 0.00 | 0.00 | 0.00 | 1014.5 | |
| 20260509000021 | -79 | 96 | 1.0 | 0.0 | 0.00 | 0.00 | 0.00 | 1014.2 | |
| 20260508234517 | -82 | 87 | 1.0 | 0.0 | 0.00 | 0.00 | 0.00 | 1014.2 | |
| 20260508233012 | -84 | 94 | 1.0 | 0.0 | 0.00 | 0.00 | 0.00 | 1014.3 | |
| 20260508231508 | -86 | 95 | 1.0 | 0.0 | 0.00 | 0.00 | 0.00 | 1014.1 | |
| 20260508230007 | -90 | 95 | 1.0 | 0.0 | 0.00 | 0.00 | 0.00 | 1013.8 | |
| 20260508224504 | -90 | 108 | 1.0 | 0.0 | 0.00 | 0.00 | 0.00 | 1013.8 | |
| 20260508223101 | -90 | 91 | 1.0 | 0.0 | 0.00 | 0.00 | 0.00 | 1013.5 | |
| 20260508221554 | -90 | 81 | 2.0 | 0.0 | 0.00 | 0.00 | 0.00 | 1013.4 | |
| 20260508220054 | -90 | 74 | 1.0 | 0.0 | 0.00 | 0.00 | 0.00 | 1013.4 | |
| 20260508214553 | -90 | 84 | 1.0 | 0.0 | 0.00 | 0.00 | 0.00 | 1013.6 | |
| 20260508213040 | -90 | 85 | 1.0 | 0.0 | 0.00 | 0.00 | 0.00 | 1013.9 |